Hourly Data Report for October 06, 2017

All times are specified in Local Standard Time (LST). Add 1 hour to adjust for Daylight Saving Time where and when it is observed.

KENTVILLE CDA CS
NOVA SCOTIA

45°04'00.000" N
64°29'00.000" W
48.70 m
8202810
71671
XKT

Download Data

Hourly Data (October 2017)
Hourly Data Report for October 6, 2017
Temp Definition
°C
Dew Point Temp Definition
°C
Rel Hum Definition
%
Wind Dir Definition
10's deg

Wind Spd Definition
km/h
Visibility Definition
km
Stn Press Definition
kPa
Hmdx Definition


Wind Chill Definition


Weather Definition


TIME
00:00 10.2 6.8 79 29 6   100.80     LegendNANA
01:00 9.3 7.6 89 0 1   100.77     LegendNANA
02:00 10.0 8.6 91 29 3   100.76     LegendNANA
03:00 10.0 8.3 89 30 2   100.76     LegendNANA
04:00 9.5 8.5 94 33 2   100.78     LegendNANA
05:00 9.7 8.6 93 25 2   100.80     LegendNANA
06:00 9.5 8.1 91 26 4   100.88     LegendNANA
07:00 10.8 8.8 87 23 5   100.96     LegendNANA
08:00 12.9 9.0 77 24 8   101.01     LegendNANA
09:00 14.5 8.3 66 26 10   101.05     LegendNANA
10:00 15.5 8.1 61 25 10   101.06     LegendNANA
11:00 16.9 7.5 54 29 12   101.02     LegendNANA
12:00 17.6 4.4 42 27 13   101.01     LegendNANA
13:00 17.6 5.5 45 24 15   100.98     LegendNANA
14:00 16.4 6.8 53 24 10   101.00     LegendNANA
15:00 15.1 7.9 62 23 16   100.99     LegendNANA
16:00 15.1 7.8 62 23 15   100.98     LegendNANA
17:00 14.7 8.5 67 23 14   101.01     LegendNANA
18:00 14.3 8.3 67 22 11   101.01     LegendNANA
19:00 13.7 8.6 71 24 7   101.10     LegendNANA
20:00 11.9 8.5 80 22 6   101.16     LegendNANA
21:00 11.4 8.2 81 21 8   101.22     LegendNANA
22:00 10.3 8.3 87 21 6   101.29     LegendNANA
23:00 9.1 7.7 91 22 4   101.36     LegendNANA

Notes on Data Quality.

Legend

  • E = Estimated
  • M = Missing
  • NA = Not Available
  • ‡ = Partner data that is not subject to review by the National Climate Archives
Date modified: